Flag for U.S.A. Weather past 2 weeks in Hartford, Connecticut, U.S.A.

Now
50 °F

Clear.


Feels Like: 48 °F
Forecast: 43 / 63 °F
Wind: 5 mph from North

Location: Hartford-Brainard Airport

Current Time: Oct 25, 2014 at 3:16:51 AM

Latest Report: Oct 25, 2014 at 2:53 AM


Visibility: 10 mi

Pressure: 29.80 "Hg

Humidity: 66%

Dew point: 39 °F

Location of HartfordLocation

Historic Weather in Hartford — Graph

°F

Hartford temperature yesterday

Maximum temperature yesterday: 55 °F (at 1:00 PM)
Minimum temperature yesterday: 45 °F (at 11:53 PM)
Average temperature yesterday: 51 °F

Past Weeks' High & Low Weather Summary

 TemperatureHumidityPressure
High77 °F (Oct 15, 11:53 AM)100% (Oct 11, 11:53 PM)30.35 "Hg (Oct 11, 11:53 PM)
Low35 °F (Oct 20, 6:53 AM)35% (Oct 10, 1:53 PM)29.52 "Hg (Oct 18, 2:53 PM)
Average56 °F77%29.95 "Hg
* Reported Oct 10 1:53 AM — Oct 25 1:53 AM, Hartford, Weather by CustomWeather, © 2014

Note: Actual official high and low records may vary slightly from our data, if they occured in-between our weather recording intervals... More about our weather records

Advertising

Hartford weather history for previous 24 hours

 ConditionsComfort  
Time TempWeatherWind HumidityBarometerVisibility
1:53 AM
Oct 25
47 °FClear.7 mph86%29.80 "Hg10 mi
12:53 AM48 °FClear.9 mph83%29.80 "Hg10 mi
11:53 PM
Oct 24
45 °FClear.7 mph90%29.80 "Hg10 mi
10:53 PM49 °FClear.8 mph80%29.79 "Hg10 mi
9:53 PM50 °FClear.3 mph74%29.78 "Hg10 mi
8:53 PM51 °FClear.6 mph71%29.77 "Hg10 mi
7:53 PM53 °FOvercast.7 mph66%29.78 "Hg10 mi
6:53 PM53 °FOvercast.6 mph66%29.78 "Hg10 mi
5:53 PM53 °FOvercast.8 mph66%29.77 "Hg10 mi
4:53 PM53 °FOvercast.6 mph64%29.76 "Hg10 mi
3:53 PM54 °FOvercast.6 mph64%29.75 "Hg10 mi
2:53 PM55 °FOvercast.7 mph62%29.74 "Hg10 mi
1:53 PM55 °FOvercast.16 mph62%29.72 "Hg10 mi
1:00 PM55 °FOvercast.N/A62%29.74 "Hg10 mi
11:53 AM54 °FMostly cloudy.21 mph67%29.76 "Hg10 mi
10:53 AM52 °FOvercast.N/A75%29.77 "Hg10 mi
9:53 AM51 °FOvercast.N/A80%29.77 "Hg10 mi
8:53 AM49 °FLight rain. Mostly cloudy.7 mph86%29.77 "Hg10 mi
7:53 AM48 °FLight rain. Mostly cloudy.5 mph89%29.76 "Hg7 mi
6:53 AM49 °FLight rain. Overcast.7 mph80%29.75 "Hg9 mi
5:53 AM50 °FMostly cloudy.6 mph77%29.74 "Hg10 mi
4:53 AM50 °FOvercast.6 mph77%29.72 "Hg10 mi
3:53 AM50 °FMostly cloudy.7 mph80%29.72 "Hg10 mi
Weather by CustomWeather, © 2014

See weather overviewHow to use our weather pages